Theta_e
325 325 324 323 322 323 324 323 321 322 323 325 324 324 324 324 324 324 324 324 324 324 324 325 325 325 325 326 325 325 325 325 325 324 323 324 325 325 325 326 325 325 324 324 324 324 324 324 324 323 322 319 319 318 318 318 317 316 315 314 314 313 313 313 313 312 311 311 311
325 324 322 318 318 320 323 322 321 321 323 325 325 325 324 325 324 324 324 324 324 324 325 325 325 325 325 325 325 325 325 324 324 324 323 324 325 325 325 325 325 324 323 324 324 324 324 324 323 322 321 319 318 318 317 317 316 315 314 313 313 312 312 313 313 312 311 311 311
323 323 322 321 321 322 322 322 321 322 323 324 325 325 325 325 324 325 325 325 325 325 325 325 325 325 325 325 325 325 325 325 324 324 324 324 325 325 325 325 324 324 323 323 323 323 323 322 321 319 318 318 317 317 316 315 315 314 314 313 313 313 315 317 313 312 312 312 311
322 322 322 322 321 322 321 321 321 321 322 323 324 324 325 325 325 325 325 325 325 325 325 325 325 325 325 325 325 325 324 323 324 324 324 324 324 324 324 324 324 324 323 323 323 322 321 321 320 319 318 317 316 316 316 315 314 313 314 313 314 315 317 317 313 312 312 312 310
321 321 321 321 321 321 321 321 321 321 322 323 323 324 324 324 325 325 325 324 325 325 325 326 325 325 325 325 325 325 324 323 320 322 324 324 324 324 324 324 323 323 323 323 322 321 320 320 319 319 318 317 317 316 315 314 314 314 314 314 316 317 316 313 312 311 311 311 310
320 321 321 321 321 321 321 321 321 321 322 322 322 322 323 323 324 324 324 324 324 325 325 324 324 324 324 325 325 324 324 324 322 323 324 323 323 323 323 323 323 323 323 322 322 321 320 319 319 318 318 317 316 315 315 314 314 315 315 317 317 316 314 312 311 311 310 310 309
320 320 320 320 320 321 321 321 321 321 322 322 321 321 321 322 322 322 322 323 323 324 324 322 323 324 324 324 324 324 324 323 323 323 323 323 323 323 322 322 322 322 322 322 321 320 320 320 319 318 316 315 315 315 315 315 316 316 316 315 314 312 311 311 310 310 309 309 308
320 320 320 320 320 321 321 321 321 321 321 321 320 320 320 321 321 321 321 321 322 323 323 323 324 325 324 324 324 323 323 323 323 323 322 322 322 321 322 322 322 322 322 322 321 320 320 320 320 319 317 316 316 316 316 316 316 315 314 313 312 311 311 311 310 310 309 308 308
319 319 320 320 320 320 320 320 320 320 320 320 320 320 320 320 320 320 320 320 320 321 322 324 324 324 324 324 323 323 323 322 322 322 321 321 321 321 321 321 321 321 321 321 321 320 320 320 319 318 318 318 317 317 316 315 314 313 313 312 312 311 311 311 310 310 309 308 308
319 319 320 320 320 320 320 320 320 320 320 320 320 319 318 315 317 319 319 319 319 320 322 323 324 324 324 323 323 322 322 322 322 321 321 320 320 320 320 320 320 320 320 321 321 320 320 319 318 318 319 319 319 317 314 313 312 312 312 312 311 311 311 310 309 309 308 308 308
318 319 319 319 319 319 319 319 319 319 319 319 319 318 317 315 317 318 319 319 319 320 321 322 323 323 323 323 322 322 322 322 321 320 320 319 319 319 320 320 320 319 319 319 320 320 319 319 318 318 318 319 317 315 314 313 312 311 311 311 311 311 310 309 309 308 308 309 308
318 319 318 318 318 318 318 318 318 317 317 317 317 317 318 318 318 318 318 318 318 319 320 321 322 322 322 322 322 321 321 321 320 320 319 319 319 319 319 319 319 319 319 319 319 319 318 318 318 317 316 316 316 315 314 312 311 311 310 310 311 311 311 310 308 309 309 309 309
319 318 318 318 318 318 317 317 317 317 317 317 317 317 317 317 317 317 317 318 317 318 319 320 321 321 322 322 321 321 320 319 319 319 319 319 319 319 319 319 319 319 319 319 319 318 318 317 316 315 314 314 314 314 313 312 311 311 310 310 310 311 311 310 309 309 309 309 309
318 318 318 318 317 317 317 317 316 316 316 316 316 316 317 317 317 317 317 318 317 317 318 318 319 319 320 321 321 320 319 319 319 318 318 318 318 319 318 318 319 319 319 319 319 318 317 316 315 314 314 314 314 313 312 311 311 310 310 310 310 310 310 310 310 309 309 308 308
318 317 317 317 317 316 316 316 316 316 316 316 316 316 316 317 316 316 317 317 317 317 317 317 317 318 319 320 320 319 319 318 318 318 318 318 318 318 318 318 318 318 319 318 318 317 317 316 315 314 314 314 313 312 311 310 310 311 311 310 310 310 310 310 310 310 309 309 309
317 317 317 317 316 316 316 316 316 316 315 315 316 316 316 316 316 316 316 317 317 317 317 317 317 318 318 318 319 319 318 318 318 318 318 317 317 318 318 318 318 318 318 317 317 317 316 316 315 315 314 313 312 311 310 309 309 310 310 310 309 309 310 310 310 310 310 309 309
317 317 317 316 316 316 316 316 316 315 315 315 315 316 316 317 317 316 315 315 317 317 317 317 317 317 317 317 317 318 318 318 318 317 317 317 317 317 317 317 317 317 317 317 317 317 317 316 316 315 314 313 312 310 309 308 309 308 308 308 308 309 309 308 309 309 309 308 308
316 316 316 316 316 316 316 316 316 315 315 315 316 316 316 316 316 316 315 315 317 317 317 317 317 317 317 317 317 317 317 317 317 317 317 317 316 316 316 316 317 317 317 317 317 316 316 316 316 316 314 313 311 310 309 308 308 308 307 308 307 308 307 306 307 307 308 307 307
315 316 316 316 316 316 315 315 315 315 315 315 316 316 316 316 316 316 316 316 316 317 317 317 317 317 317 317 317 317 316 317 317 317 317 317 316 316 316 316 317 317 317 317 317 317 317 316 316 315 313 312 310 309 308 307 307 307 306 306 306 306 306 305 306 306 306 307 306
314 314 315 315 316 315 315 315 315 315 316 316 316 316 316 317 317 316 316 316 316 317 317 317 317 317 317 317 317 317 316 317 317 317 317 317 316 316 316 316 317 317 317 317 317 317 317 316 315 314 312 310 309 308 307 307 306 306 305 305 305 304 304 304 304 303 303 304 304
314 314 314 315 315 315 315 316 315 315 315 316 316 316 316 316 317 316 316 316 317 317 317 317 317 317 317 317 317 317 317 316 317 317 317 316 316 316 316 316 316 316 316 317 316 316 316 315 314 312 311 309 308 307 307 306 306 305 305 304 303 303 302 302 301 301 300 300 299
314 314 315 315 315 315 315 315 315 315 315 315 316 316 316 316 316 316 317 317 317 317 317 317 317 317 317 317 317 317 316 316 316 317 317 317 316 316 316 316 315 315 315 315 315 314 314 313 311 311 310 309 308 307 306 306 305 305 304 304 303 302 301 300 299 298 298 297 297
314 315 315 315 315 314 314 315 315 315 315 315 315 315 316 316 316 316 317 317 317 317 317 317 317 318 317 317 317 317 316 316 316 316 316 317 316 315 314 314 313 313 313 313 313 312 312 311 310 309 309 309 307 306 305 305 305 305 304 303 302 300 298 298 297 297 297 296 296
314 315 315 315 315 315 315 315 315 315 315 315 315 315 315 315 316 316 316 316 317 317 318 318 318 318 318 318 318 317 317 316 316 315 315 315 314 313 312 312 311 311 311 311 310 309 309 309 309 309 308 308 307 306 305 304 304 304 303 302 300 298 297 296 296 296 296 296 296
314 315 315 315 315 315 314 314 314 314 314 314 315 315 315 315 315 316 316 316 316 317 317 317 318 318 318 318 318 318 317 316 315 314 313 311 311 310 311 310 310 309 308 306 303 302 303 304 307 308 308 307 305 304 303 302 302 302 301 300 298 297 297 296 296 296 296 296 297
314 314 314 315 314 314 314 314 314 314 314 315 315 315 315 315 315 315 315 315 316 316 317 317 317 316 316 317 317 317 317 316 314 312 311 310 309 309 309 309 308 306 304 301 298 298 299 300 301 303 305 306 304 303 301 300 300 299 299 298 298 297 297 297 296 296 296 296 297
313 313 313 314 313 313 313 313 313 314 314 315 315 315 315 314 314 315 314 315 315 316 316 317 316 314 314 317 316 315 315 314 312 311 310 309 309 308 308 307 305 303 300 297 296 296 297 298 298 299 301 305 304 302 301 300 299 299 299 298 298 298 298 298 298 297 297 297 297
312 312 312 313 313 312 312 312 312 313 313 314 314 314 314 314 314 314 314 314 314 315 315 315 315 314 314 315 314 313 313 312 311 310 310 310 309 308 307 305 302 299 297 295 296 296 297 297 298 298 299 300 302 302 301 300 300 300 300 300 300 300 300 300 300 299 299 298 298
312 312 312 312 312 312 312 311 311 311 312 313 313 314 314 314 313 313 313 313 313 313 313 313 313 313 313 313 313 312 311 311 311 311 310 309 308 306 304 302 299 297 295 294 296 296 296 297 297 297 297 298 301 302 301 301 300 300 300 301 300 300 301 301 301 301 300 300 299
312 312 311 311 311 311 311 311 311 311 311 312 312 313 313 313 313 313 313 312 312 312 312 313 312 312 312 312 312 312 311 311 311 310 310 308 305 303 302 299 299 297 295 294 295 296 296 296 296 296 296 296 299 301 302 301 301 301 300 300 300 301 301 301 302 302 301 301 300
311 311 311 311 311 311 311 311 311 310 311 311 311 312 312 312 312 312 312 312 312 311 311 311 311 311 311 312 311 311 311 311 310 309 308 305 302 301 300 299 298 297 295 294 295 296 296 296 296 296 296 296 298 301 302 302 302 301 301 301 301 301 301 302 302 302 302 302 301
311 311 311 311 311 311 311 311 311 311 311 310 311 311 311 312 312 312 312 312 311 311 311 311 311 311 311 311 311 311 311 310 309 308 305 303 302 301 300 299 298 296 294 294 295 295 296 296 296 296 296 296 298 301 303 302 302 301 301 301 301 301 301 302 302 302 302 302 302
311 311 311 311 311 312 312 312 311 311 311 310 311 311 311 311 312 312 312 312 311 311 311 311 312 311 312 311 311 310 309 308 306 304 302 302 301 300 299 298 297 295 294 294 295 295 295 296 296 296 296 296 299 302 303 302 300 299 298 297 297 297 297 298 299 300 301 302 302
311 311 311 311 311 312 312 312 312 311 311 311 311 311 311 312 311 311 311 310 311 311 312 312 313 312 312 311 310 309 307 305 304 303 302 301 301 300 299 298 297 295 293 294 295 295 295 296 296 296 296 296 299 300 299 298 296 295 294 294 294 294 294 294 295 296 297 299 300
311 311 312 312 312 312 312 312 312 312 311 311 311 312 312 312 312 311 311 309 310 312 313 312 312 311 311 310 308 307 305 304 303 303 302 301 301 299 298 297 296 294 293 294 295 295 295 296 296 296 296 296 298 297 296 294 293 293 292 292 291 291 291 292 292 292 293 294 295
312 312 313 313 313 313 312 312 312 312 311 311 311 312 312 312 312 312 311 310 311 311 312 311 310 309 308 307 306 305 304 304 303 302 302 301 300 299 297 296 295 294 293 294 295 295 295 295 295 295 295 296 296 295 294 293 292 291 290 289 289 289 289 289 289 290 290 291 291
313 314 314 314 314 314 314 313 313 312 311 312 311 312 312 312 312 312 311 310 311 310 309 308 307 306 305 304 304 304 303 303 303 302 301 300 299 298 297 296 295 294 293 293 294 294 295 295 295 295 295 296 295 294 292 291 290 289 288 287 287 287 287 287 287 288 288 288 289
315 315 315 316 316 315 314 313 313 312 312 312 312 312 312 312 311 311 310 309 309 309 307 306 305 305 304 303 303 302 302 302 302 301 301 299 299 297 296 295 295 294 293 293 293 294 294 294 294 294 294 294 294 293 291 290 289 288 287 286 286 286 286 286 286 286 286 286 287
315 316 316 318 317 316 315 314 313 312 312 312 312 312 312 311 311 310 308 307 307 306 305 303 302 301 301 300 299 299 298 298 298 298 298 298 297 296 295 295 294 294 293 292 293 293 294 294 293 293 293 293 293 292 291 289 288 287 286 285 285 285 285 285 285 285 285 285 286
316 317 318 319 318 317 315 314 313 313 312 312 312 311 310 310 308 307 306 305 305 303 301 299 298 297 296 295 295 294 294 294 294 295 295 295 295 294 294 294 294 293 292 292 293 293 293 293 293 293 293 293 292 292 290 289 287 286 285 285 284 284 284 284 284 284 284 284 284
317 317 318 319 318 317 315 314 313 313 312 312 311 310 308 306 305 304 304 303 301 300 298 296 295 294 293 292 292 291 290 290 291 291 292 292 293 293 293 294 294 293 293 293 293 293 293 293 293 293 292 292 292 291 290 288 287 286 285 285 284 284 284 283 283 283 283 283 283
Wind_Speed
7 7 6 6 6 6 6 6 6 6 7 9 9 10 10 10 10 9 9 9 9 8 8 8 8 9 11 15 15 15 15 15 16 16 16 16 15 15 15 16 15 14 13 14 15 13 12 12 11 10 9 9 10 11 11 11 13 12 11 9 8 8 9 10 9 9 9 8 6
8 8 7 6 6 6 5 5 5 5 6 7 8 9 10 10 10 10 9 10 9 8 8 7 8 10 13 16 16 15 14 15 16 16 17 17 16 16 16 16 15 15 15 16 16 14 13 14 13 12 10 10 10 10 10 11 11 11 11 10 8 8 8 8 8 9 9 8 6
8 8 7 7 7 7 6 5 6 6 7 7 8 9 10 10 10 9 9 10 10 9 9 8 9 12 15 17 15 14 13 14 16 16 16 16 16 16 16 16 16 15 14 15 15 14 13 15 14 12 10 10 10 10 9 9 9 9 10 10 7 6 5 5 6 7 6 6 6
8 8 8 8 9 9 8 6 7 7 7 7 7 8 9 9 9 9 9 10 10 10 10 9 10 12 14 16 15 14 13 14 15 16 16 16 16 16 16 16 16 15 14 14 14 14 13 15 12 9 9 10 10 10 8 7 8 7 7 7 6 5 5 6 5 5 5 5 6
7 7 8 8 9 9 8 7 8 8 7 6 6 7 7 7 7 8 9 10 10 10 11 12 11 12 13 15 15 15 14 14 14 15 16 16 16 16 15 15 15 14 13 12 12 12 12 13 9 7 7 8 8 8 8 8 8 7 6 4 4 5 5 6 5 4 4 5 5
6 6 7 7 8 8 7 7 8 8 6 5 6 6 6 6 6 8 9 10 10 12 13 14 13 13 14 15 16 15 15 15 14 15 16 17 16 16 16 15 15 13 12 10 10 10 10 9 6 6 6 6 6 7 7 9 8 7 5 4 5 5 6 5 4 4 4 5 6
5 6 6 7 8 7 7 7 7 7 6 5 6 6 6 6 7 9 10 9 10 12 13 13 13 14 15 16 15 15 14 14 14 14 15 16 16 16 16 15 15 14 12 11 9 8 8 8 6 5 5 4 4 6 7 8 7 7 7 7 6 5 5 5 4 4 5 7 8
5 6 6 7 7 7 7 7 7 6 5 5 6 6 6 7 8 9 10 9 10 11 12 12 15 16 17 16 15 15 15 15 15 13 13 14 15 16 16 16 14 14 13 11 10 9 8 7 6 5 5 4 4 5 6 8 9 9 9 9 6 5 4 4 5 5 6 8 8
5 5 6 6 6 7 7 7 7 6 6 7 7 7 7 8 9 10 9 8 9 10 11 12 15 17 18 17 15 14 14 15 15 14 13 13 14 15 15 14 13 12 11 11 11 10 9 7 5 5 5 5 5 7 8 10 11 10 9 8 6 5 5 6 6 6 7 8 8
6 6 6 6 6 6 6 6 6 7 7 8 9 8 8 7 8 9 8 7 8 9 11 12 14 16 16 16 15 14 13 14 15 14 14 13 14 14 14 12 12 11 10 10 10 10 10 7 7 7 7 8 9 10 10 11 11 10 8 6 6 7 7 7 7 7 7 7 8
7 6 6 6 6 7 7 7 6 6 7 8 9 9 8 8 8 8 8 8 9 10 11 12 14 15 15 15 14 13 13 13 14 15 15 15 14 14 13 12 12 11 11 10 10 10 9 8 9 10 11 11 11 11 10 10 10 9 8 7 8 9 10 8 7 7 7 8 8
7 7 7 7 7 7 7 7 6 7 7 9 9 9 9 8 9 9 9 10 10 10 11 12 14 15 15 13 13 13 13 14 15 16 16 16 15 15 14 13 13 12 12 12 11 10 9 10 11 12 13 12 10 9 9 10 9 9 10 10 10 11 11 10 8 7 7 7 8
8 8 8 8 8 8 8 7 7 7 8 9 9 8 8 8 10 11 11 12 11 10 10 11 12 14 14 14 13 13 13 14 16 16 16 16 16 15 15 14 14 13 13 12 11 11 10 11 12 12 11 10 9 9 9 10 10 11 12 13 12 12 11 11 9 7 7 6 7
9 9 9 9 9 9 8 8 7 7 8 9 9 8 8 8 9 10 12 12 12 11 10 9 10 11 13 15 14 14 14 14 15 16 16 16 16 16 15 14 14 13 12 11 11 11 11 11 11 11 10 10 9 10 10 11 12 13 13 13 12 11 10 10 9 8 7 7 7
10 10 9 9 9 8 8 8 7 7 8 9 9 8 8 8 8 9 11 13 12 11 10 9 9 10 13 16 16 16 15 15 15 16 16 16 16 16 15 14 13 12 11 10 10 11 11 11 11 10 10 10 11 11 12 12 12 12 11 11 10 10 9 9 8 8 8 8 8
10 10 10 10 9 9 8 8 7 7 8 9 9 9 8 8 8 9 10 12 11 10 10 10 10 10 12 15 17 17 16 15 15 16 16 16 15 15 14 14 12 11 11 10 10 10 10 10 10 9 10 11 13 13 13 11 10 9 9 8 8 8 8 8 8 8 8 8 8
10 10 10 10 10 9 9 8 7 7 8 9 9 9 8 8 8 8 9 11 11 11 11 11 10 10 12 13 15 16 15 15 14 14 14 15 15 14 14 13 12 11 11 10 10 10 10 9 8 9 11 13 14 13 11 8 8 8 8 8 8 8 8 8 8 8 8 8 8
9 9 9 9 10 10 10 9 9 9 10 10 9 9 9 8 8 8 9 10 11 12 12 12 11 11 12 13 13 14 14 14 14 14 14 14 14 14 13 12 11 11 10 10 10 10 9 9 10 11 13 14 12 10 8 7 7 7 7 7 7 7 6 6 6 6 7 7 7
8 8 9 9 10 10 10 11 11 11 10 10 10 10 10 10 10 10 10 10 12 13 13 12 12 12 12 13 14 13 14 15 15 15 14 14 14 13 13 12 11 11 11 10 9 9 10 11 13 14 14 13 10 8 7 7 7 7 7 6 6 5 5 4 4 4 5 5 5
9 8 8 8 9 10 11 11 11 11 11 10 11 11 11 11 11 11 11 11 11 12 13 13 12 12 13 14 14 14 14 14 15 15 15 14 14 13 13 13 12 12 12 11 11 12 13 15 16 15 14 12 9 8 7 7 7 6 5 4 4 4 3 3 3 3 3 2 2
9 9 8 8 9 10 11 11 11 11 11 11 11 11 11 11 11 12 12 11 12 12 12 12 12 13 13 14 15 14 14 13 14 14 14 14 14 14 14 14 14 14 14 15 15 16 17 17 16 15 13 11 9 9 8 7 7 6 5 4 4 4 4 4 5 5 5 5 5
9 9 9 9 10 11 11 12 12 11 11 11 11 11 11 11 11 11 11 11 11 12 12 12 12 13 13 14 14 14 13 12 12 13 13 13 14 14 14 15 16 16 17 17 17 18 17 16 14 13 11 10 9 9 8 8 7 6 5 5 5 6 6 6 6 7 7 7 7
10 10 10 10 10 11 12 13 13 12 12 11 11 11 11 11 11 11 11 11 11 11 11 11 12 12 13 14 14 13 13 12 12 12 12 12 13 14 14 13 14 15 16 15 15 15 14 12 12 11 10 10 9 9 8 8 7 7 6 6 7 7 7 8 8 8 8 8 8
11 10 10 10 11 12 13 14 14 13 12 12 12 11 11 11 11 11 11 11 11 11 11 10 11 13 14 14 13 13 13 12 12 12 11 11 12 12 11 10 10 11 11 10 10 11 11 9 10 9 9 9 8 7 7 7 7 7 7 8 8 8 8 8 8 8 8 8 8
10 10 11 11 11 12 12 13 13 13 13 13 12 12 12 12 12 12 12 12 12 12 12 12 13 13 13 13 13 13 13 13 12 12 11 10 9 9 9 8 8 8 7 6 8 10 11 9 9 8 8 7 6 6 5 5 6 7 8 9 9 9 9 9 8 8 8 8 8
9 10 11 11 11 11 10 11 12 13 13 13 13 13 13 13 13 13 13 13 13 13 13 13 13 13 13 13 13 13 13 12 12 11 10 9 8 8 8 7 7 6 5 6 9 11 11 11 10 9 7 7 6 6 6 5 6 7 8 9 9 9 9 9 8 8 8 8 8
8 9 9 10 10 9 9 9 10 11 13 14 14 14 14 14 13 14 14 15 15 14 14 13 13 13 12 13 14 14 12 10 10 9 9 8 8 8 8 6 5 4 4 6 9 11 12 12 11 10 9 7 7 7 7 6 7 8 9 9 9 9 9 9 8 8 8 7 8
8 8 8 9 9 9 9 9 9 10 11 12 13 13 13 13 14 14 14 14 15 14 14 12 12 11 10 11 11 11 10 9 8 7 7 7 7 7 6 5 4 3 4 8 10 12 12 12 12 12 11 9 8 8 7 8 7 7 8 7 8 8 8 8 8 8 8 8 8
8 8 9 9 9 9 8 8 9 10 10 11 11 11 12 12 12 12 12 12 12 12 11 9 8 7 7 8 8 9 8 8 7 6 6 6 6 6 6 5 5 5 7 10 13 14 14 14 15 14 13 11 8 7 6 6 6 6 6 6 6 7 7 7 7 7 8 8 7
10 10 9 10 9 9 8 9 9 9 9 10 10 11 11 12 12 12 11 11 11 10 9 7 6 6 7 7 8 8 7 7 6 6 7 7 6 6 6 6 6 7 9 13 15 16 16 16 17 16 15 12 10 8 7 7 6 6 6 6 6 7 7 7 7 7 7 7 7
11 11 10 10 10 9 9 9 8 8 8 9 10 11 11 11 12 12 11 11 10 8 7 7 7 7 7 7 7 7 7 7 7 7 8 9 9 8 8 8 8 8 10 14 17 18 18 18 18 17 16 13 11 9 8 8 8 7 7 6 6 6 5 5 5 6 7 7 7
12 11 10 10 10 10 9 9 8 8 8 8 10 11 11 11 11 11 11 10 9 8 7 7 7 7 7 7 7 7 7 8 8 8 9 10 10 10 9 9 8 9 11 15 17 18 19 19 19 18 16 14 12 11 10 10 10 9 8 8 8 7 6 5 5 5 6 7 6
12 11 11 10 10 10 10 9 9 8 7 8 9 10 11 11 10 10 10 9 9 9 9 8 8 8 8 8 8 8 9 9 10 10 11 11 11 11 10 9 7 8 10 15 17 19 19 19 19 18 17 14 12 11 11 11 10 9 9 9 9 9 10 10 9 8 7 6 5
12 12 11 11 11 10 10 9 8 8 7 7 8 9 10 10 10 10 9 8 7 7 7 7 8 8 8 8 9 10 11 10 11 11 12 11 12 12 11 8 6 7 10 15 17 18 19 19 19 18 17 14 12 11 12 12 11 10 10 10 10 11 12 12 12 12 11 9 7
13 12 12 11 11 10 10 9 8 8 7 7 7 8 9 9 10 9 9 7 7 6 6 7 8 8 9 9 10 11 12 12 12 11 11 11 12 12 11 9 7 7 10 15 17 18 18 19 19 18 17 14 12 11 12 13 12 12 12 12 12 13 14 14 13 13 12 11 10
13 12 12 11 11 10 10 10 9 8 8 7 8 8 9 9 9 9 9 9 9 9 9 9 9 10 10 11 11 11 11 12 12 11 11 11 12 13 12 10 8 9 11 14 16 17 17 18 18 18 16 13 11 10 11 11 11 12 13 14 14 14 14 14 14 13 12 11 11
13 12 11 11 11 11 11 11 10 9 9 9 9 9 10 10 9 9 9 10 12 13 12 12 12 12 12 12 12 11 11 11 12 11 11 11 12 13 12 11 9 9 10 13 15 16 16 17 17 16 15 12 11 10 10 10 10 11 13 14 13 13 13 12 13 13 14 13 13
12 12 11 11 11 11 11 11 11 11 11 10 9 9 10 10 9 8 9 10 13 14 14 14 14 13 13 13 13 13 13 12 12 12 11 11 12 12 12 12 10 9 9 12 14 15 16 16 16 15 14 12 12 11 10 10 10 11 11 11 12 12 11 10 10 11 14 16 17
12 12 11 11 11 11 11 12 12 12 12 12 11 11 11 10 9 8 8 10 13 15 15 15 14 14 14 14 14 14 14 13 12 12 12 12 11 11 11 11 9 8 9 11 14 16 16 17 16 15 14 12 11 11 10 10 11 11 11 10 10 10 10 9 9 10 12 17 21
12 11 11 11 11 11 12 12 12 13 13 13 13 13 12 12 10 10 10 11 13 15 15 15 15 14 14 14 15 15 15 14 13 12 12 11 11 11 11 11 10 9 9 12 15 16 17 17 17 16 14 12 11 10 10 10 11 11 10 9 9 9 9 9 9 9 11 14 17
11 11 11 11 11 12 12 13 12 12 13 14 14 13 13 12 12 12 12 12 13 14 14 14 15 14 14 13 14 15 15 15 14 13 12 12 11 11 10 10 10 10 10 12 15 17 18 18 17 16 14 11 10 9 9 10 11 11 10 9 8 8 8 8 9 9 10 11 12
Wind_Direction
208 203 198 195 194 193 193 193 192 191 190 189 188 187 186 186 185 186 186 184 183 181 180 178 176 174 171 169 167 165 163 161 156 153 152 152 154 156 161 166 170 171 169 166 170 175 181 181 183 185 183 175 171 171 174 180 186 186 182 172 166 161 159 158 156 155 154 156 163
211 207 202 199 199 199 198 196 196 197 196 194 190 186 184 183 184 184 184 184 182 179 176 175 174 172 169 168 166 163 160 157 154 153 152 152 152 154 157 161 165 166 166 164 170 178 187 188 185 182 177 171 168 170 175 183 182 177 170 164 162 159 157 156 159 158 157 160 169
208 204 201 200 204 205 204 200 199 200 200 199 192 187 183 182 182 181 181 182 179 176 173 172 171 169 167 166 165 161 156 153 152 153 153 152 152 153 155 159 161 162 163 165 173 181 189 191 186 179 171 165 164 167 173 182 177 169 163 161 158 157 161 171 169 163 159 167 180
199 197 197 197 199 200 199 196 193 193 194 194 190 186 182 180 178 177 178 181 178 175 172 170 168 166 165 164 161 157 151 147 150 152 153 153 152 152 154 157 159 160 162 167 176 184 190 192 185 174 162 158 160 165 171 175 171 165 160 157 147 150 168 192 184 171 163 178 189
189 189 189 190 191 189 187 185 182 181 182 181 180 179 178 175 172 171 174 180 179 175 170 166 164 162 161 159 156 151 146 144 148 152 154 154 153 151 151 153 157 159 161 166 175 184 189 188 178 164 154 155 162 167 169 168 164 160 152 137 139 158 178 188 177 169 172 188 196
176 177 177 178 176 174 172 171 168 167 166 162 161 164 167 166 164 165 167 173 171 168 164 162 160 157 155 153 151 148 146 147 150 152 153 152 152 152 152 152 155 157 160 165 174 180 181 174 163 153 151 155 163 165 164 161 156 147 137 134 161 178 181 167 163 171 183 193 198
160 161 162 162 160 160 158 157 156 154 150 142 139 143 149 152 152 154 156 158 158 159 159 158 157 154 151 148 147 148 150 152 154 153 151 149 151 153 155 156 158 159 161 163 168 171 168 158 150 148 152 156 160 158 156 154 148 145 148 161 173 172 163 157 169 180 188 192 194
145 147 150 151 151 150 149 148 147 146 141 131 128 130 134 138 139 139 140 142 148 152 154 154 154 152 149 146 146 148 151 155 156 155 151 147 148 150 154 158 162 164 165 161 162 162 159 151 147 149 154 162 163 159 155 153 153 156 160 165 162 160 161 175 179 183 186 188 189
134 136 139 141 141 140 139 140 141 141 138 131 126 126 127 130 129 128 128 132 138 143 146 149 150 148 146 144 147 149 152 155 154 153 149 144 142 144 146 151 156 159 161 159 159 158 156 149 147 152 161 173 172 167 163 159 158 159 161 160 162 171 182 187 182 180 180 182 185
131 131 131 131 131 129 128 130 134 135 134 129 125 124 124 125 122 120 119 120 122 129 138 146 148 147 145 145 149 152 152 150 148 147 145 142 139 139 139 142 148 151 153 155 156 156 155 151 154 164 174 182 177 171 165 157 155 157 161 167 180 190 195 194 183 178 178 180 184
129 129 128 126 125 122 121 123 125 127 127 125 124 124 124 122 118 115 112 110 111 119 129 140 144 145 146 147 150 150 147 142 141 140 139 138 136 136 136 137 140 143 145 148 149 151 152 152 162 172 179 183 178 169 159 149 153 162 174 189 196 199 200 197 186 180 179 181 185
127 126 124 122 122 120 119 119 120 121 121 122 122 122 123 121 120 118 115 112 112 116 124 134 139 142 145 147 145 142 137 133 133 133 132 132 131 131 131 132 134 136 138 139 141 143 146 150 159 167 173 175 168 159 153 153 165 180 193 202 204 204 202 197 189 185 183 182 186
124 123 122 121 120 118 116 116 116 117 118 118 118 119 120 122 124 123 122 119 117 117 121 128 134 138 141 142 139 135 130 128 128 128 128 129 128 128 128 128 130 131 132 134 135 137 140 144 150 154 157 156 153 155 161 171 184 195 203 207 207 205 201 195 190 186 185 184 191
122 122 121 120 119 117 116 115 115 115 115 115 115 116 118 121 125 126 125 123 120 119 119 121 127 134 137 138 135 131 128 125 125 125 126 127 127 127 127 127 128 129 129 130 131 131 133 136 138 141 143 146 154 167 180 190 198 203 207 207 206 203 199 192 187 185 187 190 197
120 120 120 120 119 117 115 115 113 113 113 113 113 114 116 119 123 125 125 123 122 120 119 118 122 128 133 136 133 130 127 124 124 124 125 125 126 126 126 126 126 126 126 126 125 126 126 128 131 136 145 156 172 186 196 203 206 207 208 205 201 198 195 190 187 187 190 194 200
119 119 119 119 119 117 115 114 113 112 112 112 113 114 115 116 120 121 122 122 121 119 118 118 120 124 128 131 131 130 128 126 125 124 124 124 124 124 124 124 124 125 124 123 121 120 121 124 132 144 160 175 189 198 205 208 207 206 204 200 196 194 193 190 189 191 193 195 199
117 117 118 119 119 117 116 115 114 114 113 112 112 112 113 114 115 117 119 121 120 119 118 118 118 120 123 126 129 129 129 128 126 124 123 123 123 122 122 122 122 123 122 120 118 118 121 128 146 165 181 193 201 206 208 204 201 198 197 195 194 194 193 191 191 192 194 195 200
115 115 115 117 118 118 117 117 116 116 115 113 112 111 111 112 112 113 115 117 118 119 118 117 117 118 120 123 126 127 128 128 126 124 122 121 120 119 119 119 119 119 117 115 116 122 133 151 171 187 197 205 210 210 206 196 193 192 193 193 193 193 192 190 190 191 193 194 201
112 112 113 115 117 117 117 118 118 117 116 114 112 111 111 110 110 110 111 113 116 117 118 117 116 116 117 119 121 123 124 125 123 121 120 118 118 118 118 119 119 118 118 119 128 143 162 178 189 198 204 210 212 209 201 190 189 188 188 187 187 186 183 181 182 186 189 193 201
111 111 112 114 116 117 118 119 120 119 118 116 114 112 111 110 109 109 110 112 114 115 117 117 115 114 114 114 116 117 119 120 120 120 119 120 121 123 125 128 129 131 136 144 159 173 184 192 198 203 206 209 208 203 195 188 185 181 178 173 167 159 151 145 140 138 140 148 156
112 112 113 115 117 119 120 121 122 122 121 119 117 114 112 110 109 109 110 111 112 113 115 115 114 113 111 110 111 112 114 116 118 120 122 125 130 134 139 144 147 152 159 168 177 185 191 197 200 203 205 206 202 196 190 184 179 171 161 145 128 116 109 105 99 93 88 82 79
116 117 118 120 123 125 126 127 127 126 124 122 119 116 113 110 109 109 109 108 110 112 113 113 111 109 107 107 107 109 111 114 119 124 129 134 142 149 156 161 164 167 172 178 183 188 192 196 198 200 200 200 196 190 184 179 172 163 148 128 108 93 84 81 80 79 78 75 74
125 124 124 126 130 132 134 135 134 132 129 125 122 118 115 112 111 110 109 109 111 113 114 112 109 107 106 106 108 111 115 120 126 133 139 147 157 164 170 174 175 177 179 182 184 187 190 193 195 195 194 192 189 184 178 172 166 156 142 122 101 87 78 75 77 78 79 78 76
133 134 134 134 136 139 140 141 139 137 134 131 128 124 121 118 117 116 115 116 118 119 120 117 114 113 113 114 117 121 126 132 138 146 154 164 171 176 180 181 183 184 185 185 185 185 186 188 190 189 188 183 179 172 166 161 156 147 134 117 104 93 85 79 78 79 80 80 78
141 142 142 141 143 143 143 143 143 142 141 138 136 133 131 129 128 127 127 126 127 128 127 125 124 124 125 127 131 135 141 147 153 161 169 178 181 182 183 185 188 189 189 186 183 181 181 181 182 181 177 169 156 145 137 133 131 128 122 116 110 103 95 86 81 79 79 81 80
150 150 148 147 147 146 144 143 144 146 146 145 143 141 140 139 138 137 137 137 137 136 135 134 135 136 138 140 145 150 156 162 166 171 176 183 182 180 180 182 182 181 178 177 176 175 174 172 170 165 158 148 135 122 111 102 104 107 109 110 110 107 103 96 89 84 82 83 84
157 156 154 151 149 147 146 144 146 148 150 151 150 149 148 147 146 145 145 144 144 144 144 145 148 149 150 152 156 161 165 168 170 173 177 180 176 172 170 167 161 156 156 162 164 163 160 157 151 145 138 131 123 116 110 104 100 100 102 104 106 107 107 106 101 96 91 88 88
161 160 157 154 154 153 152 150 150 152 154 155 155 154 152 151 151 151 150 150 150 151 153 156 159 160 160 159 161 163 166 166 167 170 172 170 162 154 146 135 123 121 132 141 141 139 135 131 128 124 121 117 114 111 110 108 104 101 100 101 103 105 106 107 106 104 101 98 94
164 163 162 161 162 162 161 159 160 160 159 158 156 155 154 154 155 155 156 157 158 159 161 164 165 164 163 160 160 161 162 162 162 160 155 148 137 126 116 105 100 103 111 118 118 116 113 112 110 108 106 106 107 106 105 103 101 97 95 94 97 99 102 104 108 110 110 108 105
169 169 168 169 170 171 172 172 171 167 163 159 157 156 156 156 157 158 160 163 165 167 167 164 164 165 165 162 159 160 160 158 151 144 135 126 116 106 99 97 99 102 106 108 107 106 105 103 100 98 97 97 98 98 96 93 91 88 86 85 88 93 98 105 111 114 115 113 111
173 173 173 174 176 179 181 181 178 173 166 161 160 159 159 159 160 162 165 168 170 170 168 162 161 163 164 160 156 153 150 143 136 129 122 116 108 103 100 99 100 103 105 106 105 103 102 99 97 95 94 93 93 94 93 90 87 85 83 81 83 88 96 106 110 112 113 114 116
176 177 177 179 182 185 187 186 182 177 169 162 162 162 163 164 165 166 168 169 169 168 166 162 159 157 154 147 142 136 131 126 122 118 115 112 110 106 102 98 100 103 106 105 103 102 100 99 97 96 95 93 94 94 95 92 87 82 78 73 70 68 69 73 80 88 97 110 119
180 180 181 183 187 189 190 188 185 179 172 164 163 164 165 166 165 166 166 167 167 166 164 161 155 149 143 136 128 122 117 113 112 110 110 111 111 108 103 98 99 103 105 105 103 102 101 99 98 97 95 93 93 92 91 88 85 80 74 69 63 59 57 55 53 54 59 71 95
183 185 186 188 190 191 190 189 185 179 170 160 157 157 158 159 159 159 160 160 159 157 154 148 142 135 129 123 120 116 113 109 108 109 111 113 110 106 101 96 95 97 100 103 102 101 101 100 98 96 93 90 89 86 84 83 81 78 74 69 63 58 55 53 51 47 45 43 49
186 187 189 190 191 190 189 186 180 173 163 151 144 142 142 144 145 146 144 140 134 127 121 116 112 109 106 104 106 107 108 108 109 110 111 111 106 101 95 90 85 85 90 98 99 99 99 98 97 95 93 90 88 86 85 83 81 78 74 69 63 58 55 53 50 46 43 41 42
187 188 188 188 188 187 185 180 174 165 154 141 132 128 126 127 128 128 126 120 114 109 104 101 98 96 94 93 94 97 102 107 108 107 106 104 100 97 93 89 82 79 82 91 95 96 96 96 96 95 94 93 91 89 87 85 82 78 74 70 64 60 56 54 51 47 44 41 41
185 184 182 180 180 179 177 172 166 157 147 136 128 122 118 116 115 115 115 113 109 106 102 98 96 94 93 93 92 91 92 96 98 98 96 93 94 94 93 90 85 80 81 87 91 92 93 94 95 95 95 95 95 93 90 87 84 80 76 72 68 63 60 59 55 52 48 45 43
179 175 171 168 168 167 166 162 157 150 142 132 125 120 116 112 110 109 109 109 108 105 101 97 95 93 93 92 90 86 81 80 83 86 87 85 87 91 93 92 88 84 82 83 86 88 90 91 92 94 96 98 98 96 93 90 86 82 79 75 71 67 64 63 61 57 54 50 48
170 165 160 156 154 154 153 151 148 143 136 128 122 116 112 107 104 100 99 101 103 103 100 96 92 90 88 86 83 78 73 69 69 72 76 78 79 84 89 92 89 83 77 76 82 86 88 89 90 91 94 97 98 97 95 92 89 86 83 81 78 73 69 66 64 61 57 53 51
161 156 151 146 144 142 141 140 138 135 130 125 119 113 108 103 100 97 95 94 96 96 94 91 88 86 83 81 80 76 71 65 63 64 67 71 72 75 80 87 85 79 73 72 80 85 88 89 89 89 90 92 94 95 95 95 93 91 88 86 84 80 74 68 65 62 58 53 51
154 149 144 140 137 134 132 131 129 126 123 119 114 110 106 103 101 99 96 93 90 89 89 88 87 85 83 81 80 78 74 69 63 62 64 67 68 69 72 77 77 74 71 72 79 84 86 87 86 86 87 90 92 94 96 98 97 95 93 90 88 84 80 73 67 63 58 55 52